Location: Franzen
(48.6167°N, 15.3833°E)
Time: 10:59:11
(UTC+00:00)

Nadezhda 2 Rocket - Pass Details

Date: 22 April 2021
Orbit: 947 x 1012 km, 83.0° (Epoch: 16 May)

Event Time Altitude Azimuth Distance (km) Brightness Sun altitude
Rises 20:11:27 0° 352° (N) 3,701 8.5 -18.8°
Reaches altitude 10° 20:14:01 10° 355° (N) 2,739 7.6 -19.1°
Maximum altitude 20:20:16 68° 78° (ENE) 1,040 4.5 -19.8°
Enters shadow 20:22:56 35° 150° (SSE) 1,498 4.9 -20.1°
